CW6955 Weather Reports


time (UTC)temp
F
wind
direction
speed
knots
gust
knots
rain 1hr
in
rain 24hr
in
rain mn
in
humidity
%
barometer
mb
20260507231616 56 200 0.9 3.5 0.00 0.01 0.00 85 1013.4
20260507231415 56 173 0.9 3.5 0.00 0.01 0.00 85 1013.4
20260507231215 56 174 0.9 4.3 0.00 0.01 0.00 84 1013.3
20260507231016 56 174 0.9 4.3 0.00 0.01 0.00 84 1013.3
20260507230215 57 190 0.9 2.6 0.00 0.01 0.00 83 1013.3
20260507230016 57 198 0.9 2.6 0.00 0.01 0.00 83 1013.3
20260507225816 57 196 0.9 2.6 0.00 0.01 0.00 83 1013.3
20260507225415 57 191 1.7 3.5 0.00 0.01 0.00 83 1013.3
20260507225216 57 186 1.7 3.5 0.00 0.01 0.00 83 1013.4
20260507225016 57 177 1.7 3.5 0.00 0.01 0.00 83 1013.3
20260507224815 57 172 1.7 3.5 0.00 0.01 0.00 83 1013.3
20260507224616 57 171 2.6 4.3 0.00 0.01 0.00 83 1013.3
20260507224416 57 168 2.6 5.2 0.00 0.01 0.00 84 1013.3
20260507224215 57 163 3.5 5.2 0.00 0.01 0.00 84 1013.2
20260507224017 57 160 3.5 5.2 0.00 0.01 0.00 84 1013.2
20260507223816 57 159 3.5 5.2 0.00 0.01 0.00 84 1013.2
20260507223615 57 158 3.5 6.1 0.00 0.01 0.00 84 1013.2
20260507223417 56 163 3.5 6.1 0.00 0.01 0.00 84 1013.2
20260507223216 56 167 4.3 6.1 0.00 0.01 0.00 84 1013.2
20260507223017 56 169 4.3 7.0 0.00 0.01 0.00 85 1013.2
20260507222816 56 167 4.3 8.7 0.00 0.01 0.00 85 1013.2
20260507222616 56 165 4.3 8.7 0.00 0.01 0.00 85 1013.2
20260507222416 56 158 3.5 8.7 0.00 0.01 0.00 85 1013.2
20260507222016 56 155 3.5 8.7 0.00 0.01 0.00 85 1013.2
20260507221817 56 155 2.6 7.8 0.00 0.01 0.00 85 1013.1
20260507221616 56 156 2.6 7.0 0.00 0.01 0.00 85 1013.2
20260507221415 56 157 1.7 7.0 0.00 0.01 0.00 85 1013.2
20260507221218 56 156 1.7 7.0 0.00 0.01 0.00 86 1013.2
20260507221015 56 157 1.7 5.2 0.00 0.01 0.00 86 1013.2
20260507220615 56 165 1.7 3.5 0.01 0.01 0.00 86 1013.1
20260507220416 56 169 2.6 4.3 0.01 0.01 0.00 86 1013.2
20260507220017 56 174 2.6 4.3 0.01 0.01 0.00 86 1013.2
20260507215815 56 177 2.6 5.2 0.01 0.01 0.01 86 1013.1
20260507215615 56 182 3.5 5.2 0.01 0.01 0.01 86 1013.1
20260507215217 56 182 3.5 6.1 0.01 0.01 0.01 86 1013.1
20260507215016 56 183 2.6 6.1 0.01 0.01 0.01 86 1013.1
20260507214815 56 183 2.6 7.0 0.01 0.01 0.01 86 1013.1
20260507214616 56 182 2.6 7.0 0.01 0.01 0.01 86 1013.0
20260507214416 56 184 1.7 7.0 0.01 0.01 0.01 86 1013.0
20260507214017 56 183 1.7 7.0 0.01 0.01 0.01 86 1013.0
20260507213616 56 176 2.6 5.2 0.01 0.01 0.01 85 1013.0
20260507213416 56 173 2.6 5.2 0.01 0.01 0.01 85 1013.0
20260507213215 56 168 2.6 4.3 0.01 0.01 0.01 85 1012.9
20260507213015 57 165 3.5 5.2 0.01 0.01 0.01 84 1012.9
20260507212817 57 164 3.5 5.2 0.01 0.01 0.01 84 1012.9
20260507212415 57 157 3.5 7.8 0.01 0.01 0.01 83 1012.8
20260507212216 57 157 3.5 7.8 0.01 0.01 0.01 83 1012.9
20260507212016 57 160 3.5 7.8 0.01 0.01 0.01 82 1012.8
20260507211815 57 161 3.5 7.8 0.01 0.01 0.01 82 1012.8
20260507211615 57 163 3.5 7.8 0.01 0.01 0.01 82 1012.8
20260507211416 57 164 3.5 7.0 0.01 0.01 0.01 82 1012.8
20260507211216 57 164 3.5 7.8 0.01 0.01 0.01 82 1012.8
20260507211015 57 163 3.5 7.8 0.01 0.01 0.01 82 1012.8
20260507210815 58 161 3.5 8.7 0.01 0.01 0.01 81 1012.7
20260507210615 58 162 3.5 8.7 0.00 0.00 0.00 81 1012.8
20260507210416 58 163 3.5 8.7 0.00 0.00 0.00 81 1012.7
20260507210216 58 165 3.5 8.7 0.00 0.00 0.00 81 1012.7
20260507210016 58 168 3.5 8.7 0.00 0.00 0.00 81 1012.7
20260507205815 58 171 4.3 7.8 0.00 0.00 0.00 81 1012.7
20260507205615 58 175 4.3 7.0 0.00 0.00 0.00 81 1012.7
20260507205216 58 181 3.5 7.0 0.00 0.00 0.00 81 1012.7
20260507205016 57 182 3.5 7.0 0.00 0.00 0.00 82 1012.7
20260507204816 57 185 2.6 7.0 0.00 0.00 0.00 82 1012.7
20260507204615 57 188 2.6 7.0 0.00 0.00 0.00 82 1012.7
20260507204415 57 193 1.7 6.1 0.00 0.00 0.00 83 1012.6
20260507204215 57 198 1.7 6.1 0.00 0.00 0.00 83 1012.7
20260507204016 57 203 0.9 6.1 0.00 0.00 0.00 83 1012.7
20260507203818 57 207 0.9 5.2 0.00 0.00 0.00 83 1012.7
20260507203615 57 210 0.0 4.3 0.00 0.00 0.00 83 1012.7
20260507203017 57 217 0.0 1.7 0.00 0.00 0.00 83 1012.7
20260507202815 57 0 0.0 0.0 0.00 0.00 0.00 82 1012.8
20260507202615 57 0 0.0 0.0 0.00 0.00 0.00 82 1012.8
20260507202416 57 0 0.0 0.0 0.00 0.00 0.00 82 1012.7
20260507202216 57 0 0.0 0.0 0.00 0.00 0.00 82 1012.7
20260507202017 57 0 0.0 0.0 0.00 0.00 0.00 83 1012.7
20260507201815 57 0 0.0 0.0 0.00 0.00 0.00 83 1012.7
20260507201416 57 0 0.0 0.0 0.00 0.00 0.00 84 1012.7
20260507201215 57 0 0.0 0.0 0.00 0.00 0.00 84 1012.7
20260507201015 57 163 0.0 0.9 0.00 0.00 0.00 85 1012.7
20260507200815 57 163 0.0 0.9 0.00 0.00 0.00 84 1012.7
20260507200416 57 163 0.0 0.9 0.00 0.00 0.00 84 1012.6
20260507200215 57 163 0.0 0.9 0.00 0.00 0.00 84 1012.6
20260507200016 57 0 0.0 0.0 0.00 0.00 0.00 84 1012.6
20260507195816 57 0 0.0 0.0 0.00 0.00 0.00 83 1012.6
20260507195615 57 0 0.0 0.0 0.00 0.00 0.00 83 1012.5
20260507195415 57 0 0.0 0.0 0.00 0.00 0.00 83 1012.5
20260507195215 57 0 0.9 0.0 0.00 0.00 0.00 82 1012.5
20260507195016 57 152 0.9 1.7 0.00 0.00 0.00 82 1012.5
20260507194816 58 153 0.9 1.7 0.00 0.00 0.00 82 1012.4
20260507194615 58 152 1.7 2.6 0.00 0.00 0.00 81 1012.4
20260507194416 58 146 1.7 3.5 0.00 0.00 0.00 82 1012.5
20260507194215 58 142 1.7 3.5 0.00 0.00 0.00 81 1012.5
20260507193815 58 145 1.7 3.5 0.00 0.00 0.00 81 1012.5
20260507193415 58 151 1.7 3.5 0.00 0.00 0.00 81 1012.4
20260507193215 58 157 1.7 3.5 0.00 0.00 0.00 80 1012.4
20260507193015 58 164 1.7 3.5 0.00 0.00 0.00 80 1012.4
20260507192815 58 175 1.7 3.5 0.00 0.00 0.00 80 1012.3
20260507192615 58 190 1.7 3.5 0.00 0.00 0.00 80 1012.4
20260507192016 58 243 3.5 4.3 0.00 0.00 0.00 79 1012.3
20260507191815 58 254 3.5 5.2 0.00 0.00 0.00 79 1012.3
20260507191615 58 261 4.3 7.0 0.00 0.00 0.00 79 1012.3
20260507191415 58 264 4.3 8.7 0.00 0.00 0.00 79 1012.2
20260507191215 58 266 3.5 8.7 0.00 0.00 0.00 79 1012.2
20260507191016 58 267 3.5 8.7 0.00 0.00 0.00 79 1012.2
20260507190815 58 267 3.5 8.7 0.00 0.00 0.00 79 1012.2
20260507190615 59 263 2.6 8.7 0.00 0.00 0.00 79 1012.2
20260507190415 59 256 2.6 7.0 0.00 0.00 0.00 78 1012.2
20260507190216 59 244 2.6 6.1 0.00 0.00 0.00 78 1012.1
20260507190016 59 227 2.6 7.0 0.00 0.00 0.00 76 1012.1
20260507185815 59 224 2.6 7.0 0.00 0.00 0.00 75 1012.2
20260507185615 60 223 2.6 7.0 0.00 0.00 0.00 73 1012.2
20260507185415 60 231 2.6 9.6 0.00 0.00 0.00 72 1012.1
20260507185215 60 234 2.6 9.6 0.00 0.00 0.00 70 1012.1
20260507185015 60 230 2.6 9.6 0.00 0.00 0.00 69 1012.1
20260507184815 61 220 2.6 9.6 0.00 0.00 0.00 68 1012.0
20260507184615 61 209 2.6 9.6 0.00 0.00 0.00 66 1012.1
20260507184416 61 185 2.6 5.2 0.00 0.00 0.00 64 1012.0
20260507184219 61 167 1.7 4.3 0.00 0.00 0.00 63 1011.8
20260507184015 61 161 1.7 4.3 0.00 0.00 0.00 63 1011.7
20260507183815 61 156 1.7 4.3 0.00 0.00 0.00 63 1011.7
20260507183615 61 151 0.9 4.3 0.00 0.00 0.00 63 1011.6
20260507183416 61 146 0.9 4.3 0.00 0.00 0.00 63 1011.6
20260507183215 61 136 0.9 4.3 0.00 0.00 0.00 64 1011.7
20260507183016 61 128 0.9 3.5 0.00 0.00 0.00 64 1011.6
20260507182815 61 126 0.9 3.5 0.00 0.00 0.00 64 1011.6
20260507182615 61 126 1.7 3.5 0.00 0.00 0.00 64 1011.6
20260507182415 61 128 1.7 3.5 0.00 0.00 0.00 66 1011.5
20260507182215 61 133 1.7 3.5 0.00 0.00 0.00 66 1011.5
20260507182015 61 131 1.7 3.5 0.00 0.00 0.00 67 1011.5
20260507181415 60 131 0.9 3.5 0.00 0.00 0.00 68 1011.4
20260507181215 60 133 0.9 2.6 0.00 0.00 0.00 68 1011.5
20260507181015 60 132 0.9 2.6 0.00 0.00 0.00 69 1011.5
20260507180815 60 57 0.9 3.5 0.00 0.00 0.00 69 1011.4
20260507180615 60 308 0.9 3.5 0.00 0.00 0.00 69 1011.4
20260507180415 60 303 1.7 3.5 0.00 0.00 0.00 69 1011.4
20260507180015 60 285 2.6 3.5 0.00 0.00 0.00 68 1011.3
20260507175815 60 285 2.6 3.5 0.00 0.00 0.00 68 1011.3
20260507175615 60 290 3.5 3.5 0.00 0.00 0.00 68 1011.3
20260507175415 61 295 3.5 6.1 0.00 0.00 0.00 67 1011.2
20260507175215 61 296 4.3 6.1 0.00 0.00 0.00 66 1011.3
20260507175015 61 297 4.3 6.1 0.00 0.00 0.00 65 1011.2
20260507174615 62 290 5.2 9.6 0.00 0.00 0.00 63 1011.2
20260507174415 62 284 6.1 9.6 0.00 0.00 0.00 62 1011.2
20260507174015 62 278 6.1 9.6 0.00 0.00 0.00 60 1011.2
20260507173815 62 275 7.0 9.6 0.00 0.00 0.00 60 1011.2
20260507173615 62 274 7.0 9.6 0.00 0.00 0.00 58 1011.1
20260507173416 63 273 7.8 9.6 0.00 0.00 0.00 58 1011.1
20260507173015 63 274 9.6 16.5 0.00 0.00 0.00 56 1011.2
20260507172815 63 273 9.6 16.5 0.00 0.00 0.00 55 1011.3
20260507172615 63 271 9.6 16.5 0.00 0.00 0.00 55 1011.2
20260507172215 63 270 7.8 15.6 0.00 0.00 0.00 55 1011.1
20260507172015 64 269 7.8 15.6 0.00 0.00 0.00 55 1011.1
20260507171815 64 266 7.0 15.6 0.00 0.00 0.00 55 1011.0
20260507171615 64 265 6.1 14.8 0.00 0.00 0.00 55 1010.9
20260507171415 64 262 5.2 14.8 0.00 0.00 0.00 56 1011.0
20260507171216 65 260 4.3 14.8 0.00 0.00 0.00 56 1011.1
20260507171015 65 259 3.5 14.8 0.00 0.00 0.00 55 1011.1
20260507170815 65 258 2.6 14.8 0.00 0.00 0.00 54 1011.0
20260507170615 66 253 2.6 14.8 0.00 0.00 0.00 55 1010.9
20260507170415 66 201 2.6 11.3 0.00 0.00 0.00 55 1010.9
20260507170215 66 136 2.6 5.2 0.00 0.00 0.00 54 1010.8
20260507170015 66 137 3.5 6.1 0.00 0.00 0.00 53 1010.7
20260507165815 66 139 3.5 6.1 0.00 0.00 0.00 53 1010.6
20260507165615 67 143 4.3 7.0 0.00 0.00 0.00 52 1010.6
20260507165415 67 144 4.3 8.7 0.00 0.00 0.00 52 1010.6
20260507165015 67 139 4.3 8.7 0.00 0.00 0.00 52 1010.5
20260507164815 67 140 4.3 8.7 0.00 0.00 0.00 52 1010.5
20260507164615 67 138 4.3 8.7 0.00 0.00 0.00 52 1010.5
20260507164415 67 139 4.3 7.8 0.00 0.00 0.00 51 1010.4
20260507164215 67 141 4.3 7.8 0.00 0.00 0.00 51 1010.3
20260507163815 67 141 4.3 7.8 0.00 0.00 0.00 50 1010.3
20260507163615 67 138 4.3 8.7 0.00 0.00 0.00 50 1010.3
20260507163415 67 134 5.2 8.7 0.00 0.00 0.00 50 1010.2
20260507163215 67 134 5.2 8.7 0.00 0.00 0.00 50 1010.2
20260507163015 68 130 4.3 8.7 0.00 0.00 0.00 50 1010.2
20260507162815 68 126 4.3 8.7 0.00 0.00 0.00 50 1010.1
20260507162615 68 126 4.3 8.7 0.00 0.00 0.00 49 1010.2
20260507162415 68 126 3.5 8.7 0.00 0.00 0.00 49 1010.1
20260507162215 69 123 3.5 8.7 0.00 0.00 0.00 49 1010.1
20260507162015 69 126 3.5 9.6 0.00 0.00 0.00 49 1010.1
20260507161815 69 128 4.3 9.6 0.00 0.00 0.00 49 1010.2
20260507161615 69 125 4.3 9.6 0.00 0.00 0.00 50 1010.2
20260507161415 69 130 4.3 9.6 0.00 0.00 0.00 50 1010.2
20260507161215 69 133 4.3 9.6 0.00 0.00 0.00 49 1010.3
20260507161015 69 137 4.3 9.6 0.00 0.00 0.00 49 1010.3
20260507160615 69 144 4.3 9.6 0.00 0.00 0.00 48 1010.2
20260507160415 69 144 4.3 9.6 0.00 0.00 0.00 49 1010.2
20260507160215 69 137 4.3 9.6 0.00 0.00 0.00 49 1010.2
20260507160015 69 131 4.3 7.8 0.00 0.00 0.00 50 1010.3
20260507155815 69 134 4.3 7.8 0.00 0.00 0.00 51 1010.2
20260507155615 69 135 4.3 8.7 0.00 0.00 0.00 51 1010.2
20260507155415 69 136 5.2 8.7 0.00 0.00 0.00 50 1010.2
20260507155214 69 138 5.2 8.7 0.00 0.00 0.00 50 1010.3
20260507155015 68 140 5.2 9.6 0.00 0.00 0.00 51 1010.3
20260507154815 69 133 5.2 9.6 0.00 0.00 0.00 50 1010.3
20260507154615 69 129 5.2 9.6 0.00 0.00 0.00 50 1010.3
20260507154215 69 135 4.3 10.4 0.00 0.00 0.00 50 1010.3
20260507154015 69 140 4.3 11.3 0.00 0.00 0.00 50 1010.3
20260507153815 69 146 4.3 11.3 0.00 0.00 0.00 50 1010.4
20260507153614 70 151 3.5 11.3 0.00 0.00 0.00 49 1010.3
20260507153415 70 153 3.5 11.3 0.00 0.00 0.00 49 1010.4
20260507153215 71 153 3.5 11.3 0.00 0.00 0.00 49 1010.4
20260507153015 70 149 3.5 8.7 0.00 0.00 0.00 49 1010.4
20260507152815 70 152 3.5 9.6 0.00 0.00 0.00 50 1010.4
20260507152214 69 145 3.5 9.6 0.00 0.00 0.00 50 1010.4
20260507152015 69 145 3.5 9.6 0.00 0.00 0.00 52 1010.4
20260507151815 69 137 4.3 7.0 0.00 0.00 0.00 52 1010.3
20260507151615 69 129 4.3 9.6 0.00 0.00 0.00 52 1010.3
20260507151416 69 128 4.3 9.6 0.00 0.00 0.00 51 1010.3
20260507151215 69 127 3.5 9.6 0.00 0.00 0.00 52 1010.4
20260507151015 69 130 3.5 9.6 0.00 0.00 0.00 52 1010.4
20260507150814 69 131 3.5 9.6 0.00 0.00 0.00 53 1010.3
20260507150415 69 127 2.6 9.6 0.00 0.00 0.00 54 1010.4
20260507150215 68 134 3.5 7.0 0.00 0.00 0.00 54 1010.4
20260507150015 68 133 3.5 7.0 0.00 0.00 0.00 54 1010.5
20260507145615 68 161 3.5 7.8 0.00 0.00 0.00 52 1010.5
20260507145415 69 164 3.5 7.8 0.00 0.00 0.00 53 1010.5
20260507145215 69 162 3.5 7.8 0.00 0.00 0.00 52 1010.5
20260507145015 69 152 3.5 7.8 0.00 0.00 0.00 53 1010.5
20260507144815 69 138 3.5 7.8 0.00 0.00 0.00 52 1010.5
20260507144615 69 134 3.5 7.8 0.00 0.00 0.00 54 1010.6
20260507144215 69 141 3.5 7.0 0.00 0.00 0.00 54 1010.6
20260507143815 69 158 3.5 7.8 0.00 0.00 0.00 55 1010.6
20260507143615 68 158 3.5 7.8 0.00 0.00 0.00 57 1010.6
20260507143416 68 152 3.5 7.8 0.00 0.00 0.00 55 1010.6
20260507143215 68 143 3.5 7.8 0.00 0.00 0.00 55 1010.6
20260507143015 68 139 3.5 7.8 0.00 0.00 0.00 54 1010.6
20260507142816 68 141 3.5 7.8 0.00 0.00 0.00 55 1010.6
20260507142615 68 138 3.5 7.0 0.00 0.00 0.00 55 1010.6
20260507142415 68 138 3.5 7.0 0.00 0.00 0.00 54 1010.6
20260507142215 67 142 3.5 7.0 0.00 0.00 0.00 54 1010.7
20260507142015 67 137 3.5 7.0 0.00 0.00 0.00 54 1010.7
20260507141814 68 138 3.5 7.0 0.00 0.00 0.00 53 1010.7
20260507141615 68 138 3.5 7.0 0.00 0.00 0.00 54 1010.8
20260507141215 68 148 3.5 8.7 0.00 0.00 0.00 54 1010.8
20260507141015 68 153 3.5 8.7 0.00 0.00 0.00 54 1010.8
20260507140814 68 154 3.5 8.7 0.00 0.00 0.00 53 1010.8
20260507140614 69 155 3.5 8.7 0.00 0.00 0.00 52 1010.8
20260507140415 69 147 3.5 8.7 0.00 0.00 0.00 53 1010.8
20260507140215 69 137 3.5 7.8 0.00 0.00 0.00 52 1010.8
20260507140015 69 138 3.5 7.8 0.00 0.00 0.00 53 1010.7
20260507135815 69 133 3.5 7.8 0.00 0.00 0.00 55 1010.8
20260507135614 68 135 3.5 7.0 0.00 0.00 0.00 53 1010.7
20260507135414 68 146 3.5 6.1 0.00 0.00 0.00 54 1010.8
20260507135215 67 151 2.6 8.7 0.00 0.00 0.00 53 1010.8
20260507135015 68 157 2.6 8.7 0.00 0.00 0.00 53 1010.8
20260507134815 68 159 2.6 8.7 0.00 0.00 0.00 53 1010.8
20260507134415 68 154 1.7 8.7 0.00 0.00 0.00 53 1010.8
20260507134214 68 154 1.7 7.0 0.00 0.00 0.00 54 1010.8
20260507134015 68 149 1.7 7.0 0.00 0.00 0.00 53 1010.8
20260507133815 68 164 1.7 7.0 0.00 0.00 0.00 54 1010.8
20260507133615 68 189 1.7 7.0 0.00 0.00 0.00 54 1010.8
20260507133415 68 234 1.7 5.2 0.00 0.00 0.00 55 1010.9
20260507133214 68 246 2.6 3.5 0.00 0.00 0.00 54 1010.8
20260507133015 67 245 2.6 3.5 0.00 0.00 0.00 55 1010.9
20260507132815 67 225 2.6 4.3 0.00 0.00 0.00 54 1010.9
20260507132615 67 199 2.6 7.0 0.00 0.00 0.00 54 1010.9
20260507132214 67 181 1.7 7.0 0.00 0.00 0.00 54 1010.9
20260507131615 67 203 1.7 5.2 0.00 0.00 0.00 55 1010.9
20260507131416 67 212 2.6 4.3 0.00 0.00 0.00 56 1010.9
20260507131215 67 213 2.6 4.3 0.00 0.00 0.00 54 1010.9
20260507131014 67 203 2.6 7.0 0.00 0.00 0.00 53 1010.9
20260507130815 67 189 2.6 7.8 0.00 0.00 0.00 54 1011.0
20260507130614 67 189 1.7 7.8 0.00 0.00 0.00 55 1010.9
20260507130215 67 191 1.7 7.8 0.00 0.00 0.00 56 1011.0
20260507130015 67 193 2.6 7.8 0.00 0.00 0.00 55 1011.0
20260507125815 67 194 2.6 6.1 0.00 0.00 0.00 54 1011.0
20260507125415 67 188 2.6 6.1 0.00 0.00 0.00 53 1011.0
20260507125210 68 182 2.6 6.1 0.00 0.00 0.00 52 1011.0
20260507125015 68 175 2.6 6.1 0.00 0.00 0.00 53 1011.0
20260507124814 68 173 2.6 6.1 0.00 0.00 0.00 54 1011.0
20260507124615 68 175 2.6 6.1 0.00 0.00 0.00 54 1011.1
20260507124415 68 173 2.6 6.1 0.00 0.00 0.00 53 1011.1
20260507124215 67 182 2.6 6.1 0.00 0.00 0.00 56 1011.0
20260507124016 67 199 2.6 5.2 0.00 0.00 0.00 55 1011.0
20260507123815 67 207 2.6 5.2 0.00 0.00 0.00 55 1011.1
20260507123615 67 215 2.6 7.0 0.00 0.00 0.00 55 1011.1
20260507123415 67 217 2.6 7.0 0.00 0.00 0.00 55 1011.2
20260507123014 67 197 2.6 7.0 0.00 0.00 0.00 54 1011.2
20260507122815 67 199 3.5 7.0 0.00 0.00 0.00 54 1011.2
20260507122615 67 196 3.5 6.1 0.00 0.00 0.00 56 1011.2
20260507122214 67 203 3.5 7.8 0.00 0.00 0.00 55 1011.2
20260507121614 67 196 3.5 7.8 0.00 0.00 0.00 58 1011.2
20260507121415 67 193 3.5 7.8 0.00 0.00 0.00 56 1011.3
20260507121215 66 196 3.5 7.8 0.00 0.00 0.00 55 1011.3
20260507121014 67 183 3.5 7.8 0.00 0.00 0.00 55 1011.3
20260507120814 67 205 3.5 7.8 0.00 0.00 0.00 58 1011.3
20260507120614 67 217 3.5 7.8 0.00 0.00 0.00 55 1011.3
20260507120415 67 221 3.5 7.8 0.00 0.00 0.00 55 1011.3
20260507120215 67 225 3.5 7.8 0.00 0.00 0.00 56 1011.3
20260507115814 67 225 3.5 7.8 0.00 0.00 0.00 56 1011.4
20260507115614 66 226 3.5 7.8 0.00 0.00 0.00 57 1011.4
20260507115415 66 229 3.5 7.8 0.00 0.00 0.00 57 1011.4
20260507115215 67 231 3.5 7.8 0.00 0.00 0.00 58 1011.4
20260507115015 67 222 3.5 7.8 0.00 0.00 0.00 58 1011.4
20260507114615 67 221 3.5 7.8 0.00 0.00 0.00 60 1011.5
20260507114015 66 221 4.3 7.8 0.00 0.00 0.00 60 1011.5
20260507113815 66 216 4.3 8.7 0.00 0.00 0.00 59 1011.5
20260507113614 66 207 4.3 8.7 0.00 0.00 0.00 60 1011.5
20260507113414 66 198 4.3 8.7 0.00 0.00 0.00 61 1011.5
20260507113015 65 191 4.3 8.7 0.00 0.00 0.00 63 1011.6
20260507112615 65 185 5.2 7.8 0.00 0.00 0.00 61 1011.6
20260507112414 65 182 5.2 9.6 0.00 0.00 0.00 61 1011.7
20260507112214 65 182 5.2 9.6 0.00 0.00 0.00 61 1011.7
20260507112015 65 186 4.3 9.6 0.00 0.00 0.00 61 1011.6
20260507111815 65 190 4.3 9.6 0.00 0.00 0.00 61 1011.6
20260507111615 65 197 4.3 9.6 0.00 0.00 0.00 59 1011.6
20260507111414 65 204 4.3 8.7 0.00 0.00 0.00 60 1011.7
20260507111214 65 205 4.3 9.6 0.00 0.00 0.00 60 1011.7
20260507110815 66 196 4.3 9.6 0.00 0.00 0.00 60 1011.7
20260507110615 66 187 4.3 9.6 0.00 0.00 0.00 61 1011.7
20260507110414 66 178 4.3 11.3 0.00 0.00 0.00 61 1011.6
20260507110015 66 179 4.3 11.3 0.00 0.00 0.00 61 1011.6
20260507105815 66 179 4.3 11.3 0.00 0.00 0.00 61 1011.7
20260507105415 66 193 5.2 9.6 0.00 0.00 0.00 61 1011.7
20260507105214 66 188 5.2 12.2 0.00 0.00 0.00 60 1011.7
20260507105015 66 188 5.2 12.2 0.00 0.00 0.00 60 1011.7
20260507104615 67 189 4.3 12.2 0.00 0.00 0.00 59 1011.7
20260507104415 67 190 4.3 12.2 0.00 0.00 0.00 62 1011.7
20260507104214 67 198 4.3 11.3 0.00 0.00 0.00 64 1011.7
20260507104015 66 206 4.3 11.3 0.00 0.00 0.00 61 1011.7
20260507103815 65 213 4.3 11.3 0.00 0.00 0.00 64 1011.7
20260507103615 65 220 4.3 11.3 0.00 0.00 0.00 61 1011.6
20260507103414 65 223 4.3 11.3 0.00 0.00 0.00 61 1011.7
20260507103015 66 218 4.3 10.4 0.00 0.00 0.00 62 1011.7
20260507102815 66 215 4.3 10.4 0.00 0.00 0.00 61 1011.7
20260507102414 66 213 4.3 10.4 0.00 0.00 0.00 61 1011.7
20260507102014 67 208 4.3 8.7 0.00 0.00 0.00 59 1011.6
20260507101814 67 202 4.3 8.7 0.00 0.00 0.00 59 1011.6
20260507101615 68 198 4.3 8.7 0.00 0.00 0.00 59 1011.6
20260507101215 67 213 3.5 8.7 0.00 0.00 0.00 63 1011.5
20260507101015 67 214 3.5 8.7 0.00 0.00 0.00 64 1011.5
20260507100814 66 225 3.5 8.7 0.00 0.00 0.00 63 1011.6
20260507100614 65 221 3.5 8.7 0.00 0.00 0.00 62 1011.5
20260507100415 65 216 3.5 8.7 0.00 0.00 0.00 63 1011.6
20260507100215 65 211 3.5 8.7 0.00 0.00 0.00 61 1011.5
20260507100015 65 211 3.5 8.7 0.00 0.00 0.00 61 1011.6
20260507095614 65 209 4.3 7.8 0.00 0.00 0.00 62 1011.6
20260507095416 65 211 4.3 10.4 0.00 0.00 0.00 62 1011.5
20260507095215 65 211 4.3 10.4 0.00 0.00 0.00 62 1011.5
20260507095015 65 215 4.3 10.4 0.00 0.00 0.00 63 1011.5
20260507094814 65 221 4.3 10.4 0.00 0.00 0.00 63 1011.4
20260507094614 65 224 4.3 10.4 0.00 0.00 0.00 63 1011.4
20260507094415 65 225 4.3 8.7 0.00 0.00 0.00 64 1011.4
20260507094215 65 228 4.3 8.7 0.00 0.00 0.00 64 1011.4
20260507094016 65 225 5.2 9.6 0.00 0.00 0.00 64 1011.4
20260507093814 64 221 5.2 9.6 0.00 0.00 0.00 65 1011.4
20260507093615 64 226 5.2 9.6 0.00 0.00 0.00 64 1011.3
20260507093415 64 221 5.2 10.4 0.00 0.00 0.00 63 1011.4
20260507093214 64 215 5.2 10.4 0.00 0.00 0.00 63 1011.4
20260507093015 65 216 4.3 10.4 0.00 0.00 0.00 64 1011.3
20260507092815 65 218 4.3 10.4 0.00 0.00 0.00 64 1011.3
20260507092414 65 222 3.5 10.4 0.00 0.00 0.00 63 1011.3
20260507092214 65 230 4.3 9.6 0.00 0.00 0.00 63 1011.2
20260507092016 65 235 4.3 7.8 0.00 0.00 0.00 63 1011.2
20260507091615 65 232 4.3 7.8 0.00 0.00 0.00 63 1011.1
20260507091415 65 233 4.3 10.4 0.00 0.00 0.00 63 1011.1
20260507091215 65 233 4.3 10.4 0.00 0.00 0.00 63 1011.1
20260507091016 65 223 4.3 10.4 0.00 0.00 0.00 63 1011.0
20260507090815 65 220 4.3 10.4 0.00 0.00 0.00 63 1011.1
20260507090614 65 219 4.3 10.4 0.00 0.00 0.00 63 1011.0
20260507090414 65 217 4.3 7.8 0.00 0.00 0.00 64 1011.0
20260507090215 65 219 4.3 7.8 0.00 0.00 0.00 63 1010.9
20260507090016 65 224 3.5 8.7 0.00 0.00 0.00 63 1010.9
20260507085814 65 228 3.5 8.7 0.00 0.00 0.00 63 1010.9
20260507085614 65 232 3.5 8.7 0.00 0.00 0.00 62 1010.9
20260507085414 66 238 3.5 8.7 0.00 0.00 0.00 61 1010.8
20260507084814 66 235 3.5 7.8 0.00 0.00 0.00 62 1010.7
20260507084614 66 228 3.5 7.8 0.00 0.00 0.00 61 1010.6
20260507084415 66 216 3.5 7.8 0.00 0.00 0.00 63 1010.6
20260507084214 66 203 4.3 7.8 0.00 0.00 0.00 62 1010.6
20260507083814 66 210 4.3 8.7 0.00 0.00 0.00 63 1010.5
20260507083614 66 219 4.3 8.7 0.00 0.00 0.00 63 1010.5
20260507083415 66 224 4.3 8.7 0.00 0.00 0.00 62 1010.5
20260507083015 66 229 4.3 7.8 0.00 0.00 0.00 63 1010.4
20260507082815 66 226 4.3 7.8 0.00 0.00 0.00 61 1010.4
20260507082414 67 217 4.3 7.8 0.00 0.00 0.00 62 1010.4
20260507082214 66 214 4.3 7.8 0.00 0.00 0.00 62 1010.2
20260507082014 67 221 4.3 7.8 0.00 0.00 0.00 62 1010.3
20260507081815 67 220 4.3 7.8 0.00 0.00 0.00 62 1010.3
20260507081617 67 214 4.3 7.8 0.00 0.00 0.00 63 1010.3
20260507081415 66 204 4.3 7.8 0.00 0.00 0.00 63 1010.3
20260507081214 66 198 3.5 7.8 0.00 0.00 0.00 63 1010.3
20260507081015 66 179 3.5 8.7 0.00 0.00 0.00 63 1010.4
20260507080814 66 176 3.5 8.7 0.00 0.00 0.00 64 1010.4
20260507080615 66 181 3.5 8.7 0.00 0.00 0.00 63 1010.3
20260507080414 66 182 2.6 8.7 0.00 0.00 0.00 64 1010.4
20260507080214 66 181 2.6 9.6 0.00 0.00 0.00 64 1010.3
20260507075614 66 197 3.5 9.6 0.00 0.00 0.00 62 1010.3
20260507075214 66 205 3.5 8.7 0.00 0.00 0.00 62 1010.2
20260507075014 66 193 3.5 8.7 0.00 0.00 0.00 62 1010.2
20260507074814 66 190 3.5 8.7 0.00 0.00 0.00 63 1010.2
20260507074415 65 174 3.5 8.7 0.00 0.00 0.00 64 1010.2
20260507074215 65 181 3.5 8.7 0.00 0.00 0.00 66 1010.3
20260507074015 65 192 3.5 8.7 0.00 0.00 0.00 64 1010.3
20260507073815 65 196 3.5 8.7 0.00 0.00 0.00 66 1010.3
20260507073615 65 207 4.3 7.8 0.00 0.00 0.00 64 1010.3
20260507073414 65 226 4.3 7.8 0.00 0.00 0.00 65 1010.3
20260507073214 65 241 4.3 7.8 0.00 0.00 0.00 65 1010.2
20260507073014 65 238 4.3 7.8 0.00 0.00 0.00 65 1010.3
20260507072814 64 237 4.3 7.8 0.00 0.00 0.00 65 1010.2
20260507072614 65 238 4.3 7.8 0.00 0.00 0.00 64 1010.3
20260507072414 65 229 3.5 7.8 0.00 0.00 0.00 65 1010.3
20260507072214 64 221 3.5 7.8 0.00 0.00 0.00 65 1010.2
20260507072014 64 226 3.5 7.8 0.00 0.00 0.00 65 1010.2
20260507071815 64 230 3.5 7.8 0.00 0.00 0.00 65 1010.3
20260507071614 64 236 3.5 7.8 0.00 0.00 0.00 66 1010.2
20260507071414 64 241 3.5 7.8 0.00 0.00 0.00 65 1010.2
20260507071214 64 246 4.3 7.8 0.00 0.00 0.00 66 1010.2
20260507070815 64 252 4.3 7.8 0.00 0.00 0.00 65 1010.2
20260507070614 64 255 5.2 7.8 0.00 0.00 0.00 66 1010.2
20260507070414 64 256 5.2 7.8 0.00 0.00 0.00 65 1010.2
20260507070215 64 260 4.3 8.7 0.00 0.00 0.00 66 1010.2
20260507070014 64 261 4.3 8.7 0.00 0.00 0.00 65 1010.1
20260507065814 64 261 4.3 8.7 0.00 0.00 0.00 66 1010.2
20260507065614 64 262 4.3 8.7 0.00 0.00 0.00 66 1010.2
20260507065215 64 248 4.3 8.7 0.00 0.00 0.00 69 1010.2
20260507065014 63 234 4.3 8.7 0.00 0.00 0.00 70 1010.1
20260507064814 63 220 4.3 8.7 0.00 0.00 0.00 69 1010.1
20260507064614 63 209 4.3 8.7 0.00 0.00 0.00 70 1010.1
20260507064215 63 197 3.5 10.4 0.00 0.00 0.00 71 1010.1
20260507064014 63 194 3.5 10.4 0.00 0.00 0.00 72 1010.1
20260507063815 63 197 3.5 10.4 0.00 0.00 0.00 72 1010.1
20260507063615 62 195 3.5 10.4 0.00 0.00 0.00 73 1010.1
20260507063415 62 201 3.5 7.0 0.00 0.00 0.00 73 1010.1
20260507063014 62 194 3.5 6.1 0.00 0.00 0.00 75 1010.1
20260507062814 62 195 3.5 6.1 0.00 0.00 0.00 76 1010.1
20260507062615 61 197 3.5 7.0 0.00 0.00 0.00 76 1010.1
20260507062414 61 196 3.5 7.0 0.00 0.00 0.00 75 1010.0
20260507062214 61 198 3.5 7.0 0.00 0.00 0.00 76 1010.0
20260507061814 61 197 3.5 7.8 0.00 0.00 0.00 76 1010.0
20260507061614 61 195 3.5 7.8 0.00 0.00 0.00 75 1010.0
20260507061214 61 188 3.5 8.7 0.00 0.00 0.00 75 1010.0
20260507061015 61 186 3.5 8.7 0.00 0.00 0.00 75 1010.0
20260507060815 61 187 3.5 8.7 0.00 0.00 0.00 75 1010.0
20260507060614 61 187 4.3 8.7 0.00 0.00 0.00 75 1010.0
20260507060414 61 187 4.3 8.7 0.00 0.00 0.00 75 1009.9
20260507060214 61 188 4.3 7.8 0.00 0.00 0.00 75 1009.9
20260507060014 61 191 4.3 7.8 0.00 0.00 0.00 75 1009.9
20260507055815 61 190 4.3 7.8 0.00 0.00 0.00 75 1009.8
20260507055414 61 191 3.5 7.8 0.00 0.00 0.00 74 1009.7
20260507055015 62 194 4.3 7.8 0.00 0.00 0.00 74 1009.7
20260507054814 62 192 4.3 7.8 0.00 0.00 0.00 74 1009.6
20260507054614 62 190 4.3 7.8 0.00 0.00 0.00 74 1009.6
20260507054414 62 189 4.3 7.8 0.00 0.00 0.00 75 1009.6
20260507054214 61 186 4.3 7.8 0.00 0.00 0.00 77 1009.6
20260507054015 60 178 4.3 8.7 0.00 0.00 0.00 77 1009.5
20260507053815 60 173 4.3 8.7 0.00 0.00 0.00 77 1009.5
20260507053615 60 171 4.3 8.7 0.00 0.00 0.00 78 1009.4
20260507053415 59 168 4.3 8.7 0.00 0.00 0.00 78 1009.4
20260507053215 59 164 4.3 9.6 0.00 0.00 0.00 78 1009.3
20260507053014 59 168 4.3 9.6 0.00 0.00 0.00 78 1009.3
20260507052815 59 172 4.3 9.6 0.00 0.00 0.00 78 1009.2
20260507052614 59 171 4.3 9.6 0.00 0.00 0.00 78 1009.3
20260507052216 59 167 4.3 8.7 0.00 0.00 0.00 78 1009.2
20260507052015 59 166 4.3 8.7 0.00 0.00 0.00 79 1009.2
20260507051614 58 165 3.5 8.7 0.00 0.00 0.00 79 1009.2
20260507051414 58 166 3.5 8.7 0.00 0.00 0.00 79 1009.1
20260507051214 58 170 3.5 8.7 0.00 0.00 0.00 79 1009.2
20260507051015 58 172 3.5 8.7 0.00 0.00 0.00 79 1009.1
20260507050814 58 172 3.5 7.0 0.00 0.00 0.00 80 1009.1
20260507050615 58 174 3.5 7.0 0.00 0.00 0.00 80 1009.1
20260507050414 58 176 3.5 8.7 0.00 0.00 0.00 80 1009.0
20260507050209 58 175 3.5 8.7 0.00 0.00 0.00 80 1009.0
20260507050014 58 177 3.5 8.7 0.00 0.00 0.00 80 1009.0
20260507045814 58 181 3.5 8.7 0.00 0.00 0.00 80 1009.0
20260507045614 58 181 3.5 8.7 0.00 0.00 0.00 80 1009.0
20260507045414 58 182 3.5 7.0 0.00 0.00 0.00 81 1009.0
20260507044814 58 179 4.3 7.8 0.00 0.00 0.00 81 1008.9
20260507044615 58 177 4.3 7.8 0.00 0.00 0.00 81 1008.9
20260507044414 58 177 4.3 7.8 0.00 0.00 0.00 81 1008.8
20260507044214 58 173 4.3 7.8 0.00 0.00 0.00 81 1008.8
20260507044015 58 172 4.3 7.8 0.00 0.00 0.00 81 1008.7
20260507043814 58 168 4.3 7.8 0.00 0.00 0.00 80 1008.7
20260507043614 58 167 4.3 8.7 0.00 0.00 0.00 80 1008.6
20260507043415 58 167 4.3 8.7 0.00 0.00 0.00 80 1008.6
20260507043214 58 172 4.3 8.7 0.00 0.00 0.00 80 1008.6
20260507043014 58 179 4.3 8.7 0.00 0.00 0.00 80 1008.5
20260507042814 58 183 4.3 9.6 0.00 0.00 0.00 80 1008.5
20260507042615 58 184 4.3 9.6 0.00 0.00 0.00 80 1008.5
20260507042414 58 184 4.3 9.6 0.00 0.00 0.00 80 1008.5
20260507042214 58 178 4.3 9.6 0.00 0.00 0.00 80 1008.5
20260507042014 58 170 4.3 9.6 0.00 0.00 0.00 80 1008.5
20260507041814 58 169 4.3 8.7 0.00 0.00 0.00 80 1008.4
20260507041614 58 166 4.3 8.7 0.00 0.00 0.00 80 1008.3
20260507041414 58 164 4.3 8.7 0.00 0.00 0.00 80 1008.3
20260507041215 58 166 4.3 8.7 0.00 0.00 0.00 80 1008.3
20260507041015 58 168 4.3 8.7 0.00 0.00 0.00 80 1008.3
20260507040814 58 168 4.3 7.0 0.00 0.00 0.00 80 1008.3
20260507040614 58 169 4.3 7.0 0.00 0.00 0.00 80 1008.3
20260507040414 58 169 4.3 7.0 0.00 0.00 0.00 80 1008.3
20260507040015 58 164 4.3 9.6 0.00 0.00 0.00 80 1008.1
20260507035814 58 164 4.3 9.6 0.00 0.00 0.00 80 1008.0
20260507035414 58 164 4.3 9.6 0.00 0.00 0.00 81 1008.0
20260507035215 58 165 4.3 9.6 0.00 0.00 0.00 81 1008.0
20260507034615 57 178 4.3 9.6 0.00 0.00 0.00 81 1008.1
20260507034214 57 183 4.3 9.6 0.00 0.00 0.00 81 1008.0
20260507034015 57 185 4.3 9.6 0.00 0.00 0.00 80 1008.1
20260507033814 57 185 4.3 8.7 0.00 0.00 0.00 81 1008.0
20260507033614 58 186 4.3 7.8 0.00 0.00 0.00 80 1007.9
20260507033415 58 187 4.3 8.7 0.00 0.00 0.00 80 1007.9
20260507033217 58 184 4.3 8.7 0.00 0.00 0.00 80 1007.8
20260507032814 58 171 4.3 8.7 0.00 0.00 0.00 80 1007.8
20260507032614 58 164 4.3 8.7 0.00 0.00 0.00 80 1007.9
20260507032414 58 160 5.2 8.7 0.00 0.00 0.00 80 1007.9
20260507032214 58 158 5.2 8.7 0.00 0.00 0.00 80 1007.9
20260507032014 58 161 6.1 8.7 0.00 0.00 0.00 80 1007.8
20260507031814 58 168 6.1 9.6 0.00 0.00 0.00 80 1007.8
20260507031614 58 174 6.1 9.6 0.00 0.00 0.00 80 1007.8
20260507031214 58 183 6.1 11.3 0.00 0.00 0.00 80 1007.7
20260507031014 58 186 5.2 11.3 0.00 0.00 0.00 80 1007.7
20260507030414 58 185 4.3 11.3 0.00 0.00 0.00 80 1007.6
20260507030215 57 185 3.5 10.4 0.00 0.00 0.00 80 1007.6
20260507030014 57 185 3.5 10.4 0.00 0.00 0.00 80 1007.6
20260507025814 57 186 3.5 10.4 0.00 0.00 0.00 80 1007.6
20260507025614 57 182 3.5 7.0 0.00 0.00 0.00 79 1007.6
20260507025414 58 173 4.3 7.0 0.00 0.00 0.00 79 1007.7
20260507025215 58 169 4.3 7.0 0.00 0.00 0.00 79 1007.7
20260507025014 58 162 4.3 7.0 0.00 0.00 0.00 79 1007.6
20260507024816 58 161 4.3 8.7 0.00 0.00 0.00 79 1007.6
20260507024617 58 161 4.3 8.7 0.00 0.00 0.00 79 1007.6
20260507024414 58 164 4.3 8.7 0.00 0.00 0.00 79 1007.6
20260507024214 58 167 4.3 8.7 0.00 0.00 0.00 79 1007.6
20260507024016 58 170 3.5 8.7 0.00 0.00 0.00 79 1007.5
20260507023814 58 176 3.5 7.8 0.00 0.00 0.00 79 1007.5
20260507023614 58 181 3.5 7.0 0.00 0.00 0.00 79 1007.5
20260507023014 57 184 2.6 7.0 0.00 0.00 0.00 79 1007.4
20260507022814 57 179 2.6 6.1 0.00 0.00 0.00 79 1007.3
20260507022614 57 176 2.6 6.1 0.00 0.00 0.00 79 1007.3
20260507022414 58 174 3.5 6.1 0.00 0.00 0.00 79 1007.3
20260507022214 58 174 3.5 7.0 0.00 0.00 0.00 79 1007.3
20260507022014 58 171 3.5 7.8 0.00 0.00 0.00 79 1007.4
20260507021814 58 170 4.3 7.8 0.00 0.00 0.00 79 1007.3
20260507021615 58 168 4.3 7.8 0.00 0.00 0.00 78 1007.5
20260507021414 58 164 4.3 8.7 0.00 0.00 0.00 78 1007.5
20260507021216 58 162 4.3 8.7 0.00 0.00 0.00 78 1007.5
20260507021015 58 161 4.3 8.7 0.00 0.00 0.00 78 1007.4
20260507020815 58 160 4.3 8.7 0.00 0.00 0.00 78 1007.4
20260507020616 58 159 4.3 8.7 0.00 0.00 0.00 78 1007.4
20260507020414 58 160 4.3 7.0 0.00 0.00 0.00 78 1007.4
20260507020215 58 156 4.3 8.7 0.00 0.00 0.00 77 1007.5
20260507020014 58 154 4.3 8.7 0.00 0.00 0.00 77 1007.4
20260507015817 58 153 4.3 8.7 0.00 0.00 0.00 77 1007.4
20260507015614 59 153 4.3 8.7 0.00 0.00 0.00 77 1007.4
20260507015214 59 161 5.2 7.8 0.00 0.00 0.00 77 1007.3
20260507015014 59 168 5.2 7.8 0.00 0.00 0.00 77 1007.3
20260507014815 58 173 5.2 8.7 0.00 0.00 0.00 78 1007.3
20260507014614 58 178 5.2 10.4 0.00 0.00 0.00 78 1007.3
20260507014415 58 179 5.2 10.4 0.00 0.00 0.00 78 1007.3
20260507014014 59 182 5.2 10.4 0.00 0.00 0.00 77 1007.2
20260507013815 59 181 5.2 11.3 0.00 0.00 0.00 77 1007.3
20260507013615 59 183 5.2 11.3 0.00 0.00 0.00 78 1007.2
20260507013415 59 182 5.2 11.3 0.00 0.00 0.00 78 1007.2
20260507013216 59 182 5.2 11.3 0.00 0.00 0.00 78 1007.1
20260507012815 58 182 5.2 9.6 0.00 0.00 0.00 78 1007.2
20260507012615 58 179 5.2 9.6 0.00 0.00 0.00 78 1007.2
20260507012417 58 178 6.1 9.6 0.00 0.00 0.00 78 1007.2
20260507012016 58 177 6.1 9.6 0.00 0.00 0.00 78 1007.1
20260507011614 59 179 6.1 9.6 0.00 0.00 0.00 77 1007.0
20260507011416 59 179 6.1 12.2 0.00 0.00 0.00 77 1007.0
20260507011216 59 178 6.1 12.2 0.00 0.00 0.00 77 1007.0
20260507011014 59 175 6.1 12.2 0.00 0.00 0.00 77 1007.0
20260507010815 59 174 6.1 12.2 0.00 0.00 0.00 77 1006.9
20260507010614 59 171 6.1 13.0 0.00 0.00 0.00 76 1007.0
20260507010016 59 172 6.1 13.0 0.00 0.00 0.00 76 1006.9
20260507005816 59 173 6.1 13.0 0.00 0.00 0.00 76 1006.9
20260507005414 60 178 6.1 11.3 0.00 0.00 0.00 76 1006.8
20260507005214 60 179 6.1 11.3 0.00 0.00 0.00 76 1006.8
20260507004815 60 182 7.0 10.4 0.00 0.00 0.00 75 1006.6
20260507004615 60 182 7.0 10.4 0.00 0.00 0.00 75 1006.6
20260507004415 60 179 7.0 13.0 0.00 0.00 0.00 74 1006.5
20260507004214 60 176 7.8 13.0 0.00 0.00 0.00 74 1006.6
20260507003815 60 167 7.8 14.8 0.00 0.00 0.00 74 1006.5
20260507003614 60 166 7.8 14.8 0.00 0.00 0.00 73 1006.4
20260507003414 60 169 7.8 14.8 0.00 0.00 0.00 73 1006.4
20260507003214 60 169 8.7 14.8 0.00 0.00 0.00 73 1006.4
20260507003014 60 167 8.7 17.4 0.00 0.00 0.00 73 1006.5
20260507002814 61 164 8.7 17.4 0.00 0.00 0.00 73 1006.5
20260507002615 61 161 8.7 17.4 0.00 0.00 0.00 73 1006.5
20260507002414 61 156 8.7 17.4 0.00 0.00 0.00 72 1006.4
20260507002215 61 153 8.7 17.4 0.00 0.00 0.00 72 1006.3
20260507002014 61 152 8.7 15.6 0.00 0.00 0.00 72 1006.3
20260507001815 61 151 7.8 14.8 0.00 0.00 0.00 72 1006.3
20260507001615 61 149 7.8 15.6 0.00 0.00 0.00 72 1006.3
20260507001414 61 150 7.8 15.6 0.00 0.00 0.00 72 1006.2
20260507001214 61 150 7.0 15.6 0.00 0.00 0.00 72 1006.1
20260507001014 61 152 7.0 15.6 0.00 0.00 0.00 72 1006.1
20260507000614 61 157 7.8 12.2 0.00 0.00 0.00 72 1006.0
20260507000413 61 157 7.8 12.2 0.00 0.00 0.00 71 1006.0
20260507000214 61 158 7.8 12.2 0.00 0.00 0.00 71 1006.0
20260506235814 62 155 8.7 13.9 0.00 0.00 0.00 71 1006.0
20260506235614 62 153 8.7 15.6 0.00 0.00 0.00 71 1006.0
20260506235414 62 152 8.7 15.6 0.00 0.00 0.00 71 1006.0
20260506235214 62 150 8.7 15.6 0.00 0.00 0.00 71 1006.0
20260506235014 62 148 8.7 15.6 0.00 0.00 0.00 71 1006.0
20260506234614 62 146 8.7 15.6 0.00 0.00 0.00 71 1005.9
20260506234415 62 144 8.7 15.6 0.00 0.00 0.00 71 1005.9
20260506234014 62 146 7.8 15.6 0.00 0.00 0.00 71 1005.8
20260506233815 62 147 7.8 15.6 0.00 0.00 0.00 71 1005.8
20260506233614 62 147 7.8 15.6 0.00 0.00 0.00 71 1005.8
20260506233413 62 149 7.8 15.6 0.00 0.00 0.00 71 1005.8
20260506233214 62 152 8.7 14.8 0.00 0.00 0.00 71 1005.7
20260506233013 62 153 8.7 16.5 0.00 0.00 0.00 71 1005.7
20260506232614 62 154 8.7 16.5 0.00 0.00 0.00 70 1005.8
20260506232214 62 154 8.7 16.5 0.00 0.00 0.00 70 1005.8
20260506232014 62 153 7.8 14.8 0.00 0.00 0.00 70 1005.8
20260506231814 62 151 7.8 14.8 0.00 0.00 0.00 70 1005.8